Content
SEND FEEDBACK

Daily
Averages
Monthly
Summary
United States of America

RAPID CITY, SOUTH DAKOTA


Home > North America > United States > South Dakota
Elevation: 963 meters     Latitude: 44 03N     Longitude: 103 04W

WEATHER
 
SELECT A DAY
Number of Records: 200,374;   Date Range: 1/1/95 - 8/12/14
 
SHARE

PRINT THIS DATA

[ ← Previous Day ]
WEATHER ALMANAC - 11 JULY, 2013
[ Next Day → ]
[ °F ]   °C
Weather ElementAverageHighLow
Temperature28.6 °C37.2 °C (4:52 pm)19.4 °C (5:52 am)
Dewpoint15.1 °C18.3 °C (8:52 am)10.6 °C (4:52 pm)
Humidity47.4 %81 % (5:52 am)20 % (4:52 pm)
Barometer1008.5 hPa1012.5 hPa (1:52 am)1004.7 hPa (4:52 pm)
Wind Speed18.2 km/h29.6 km/h (1:52 pm)
Wind Gust48.1 km/h (8:21 pm)
Weather ElementAverage
Visibility16.1 km
Wind DirectionSSE (171.3 °)

Weather ElementTotal
Precipitation---
Cooling Degree Days10 (Base 18.3)
Growing Degree Days18.3 (Base 10)
Averaged from 24 records on 11 July, 2013
WEATHER CONDITIONS BREAKOUT
WIND DIRECTION BREAKOUT
WEATHER BY HOUR - 11 JULY, 2013
[ °F ]   °C
Local TimeTemperatureDewpointHumidityBarometerVisibilityWind DirectionWind SpeedGust SpeedPrecipitationEventsConditions
1:52 AM22.2 °C14.4 °C61 %1012.5 hPa16.1 kmSSE (160°)7.4 km/hClear
2:52 AM23.3 °C15.6 °C62 %1011.9 hPa16.1 kmSSW (200°)13 km/hScattered Clouds
3:52 AM20.6 °C15.6 °C73 %1012.2 hPa16.1 kmSSE (150°)16.7 km/hClear
4:52 AM20.6 °C16.1 °C75 %1011.5 hPa16.1 kmSSW (210°)11.1 km/hClear
5:52 AM19.4 °C16.1 °C81 %1011.2 hPa16.1 kmSE (130°)5.6 km/hClear
6:52 AM21.1 °C17.2 °C78 %1011.2 hPa16.1 kmSE (140°)7.4 km/hClear
7:52 AM23.9 °C17.8 °C69 %1011.2 hPa16.1 kmSE (140°)7.4 km/hClear
8:52 AM26.1 °C18.3 °C62 %1010.8 hPa16.1 kmSE (140°)11.1 km/hClear
9:52 AM28.3 °C18.3 °C54 %1010.2 hPa16.1 kmSouth (170°)16.7 km/hClear
10:52 AM30.6 °C18.3 °C48 %1009.5 hPa16.1 kmSouth (170°)20.4 km/hClear
11:52 AM32.8 °C15 °C34 %1008.8 hPa16.1 kmSSE (160°)22.2 km/h35.2 km/hClear
12:52 PM34.4 °C16.1 °C33 %1007.8 hPa16.1 kmSouth (170°)24.1 km/h38.9 km/hClear
1:52 PM35 °C16.7 °C33 %1007.1 hPa16.1 kmSouth (170°)29.6 km/hClear
2:52 PM35.6 °C16.7 °C32 %1006.8 hPa16.1 kmSouth (170°)25.9 km/h37 km/hClear
3:52 PM36.7 °C15 °C27 %1005.8 hPa16.1 kmSSE (160°)24.1 km/h42.6 km/hClear
4:52 PM37.2 °C10.6 °C20 %1004.7 hPa16.1 kmSSE (150°)29.6 km/h40.7 km/hClear
5:52 PM36.1 °C12.8 °C24 %1004.7 hPa16.1 kmSouth (170°)29.6 km/h46.3 km/hClear
6:52 PM32.8 °C12.8 °C29 %1004.7 hPa16.1 kmSSE (160°)25.9 km/h37 km/hClear
7:52 PM31.1 °C13.3 °C34 %1005.4 hPa16.1 kmSouth (170°)18.5 km/hClear
8:21 PM30 °C12 °C33 %1010.8 hPa16.1 kmWest (270°)29.6 km/h48.1 km/hPartly Cloudy
8:52 PM31.1 °C11.1 °C29 %1006.1 hPa16.1 kmWNW (300°)9.3 km/hMostly Cloudy
9:52 PM25 °C13.9 °C50 %1005.4 hPa16.1 kmSSE (150°)18.5 km/h0 mmClear
10:52 PM27.2 °C13.9 °C44 %1005.4 hPa16.1 kmSSE (160°)16.7 km/hClear
11:52 PM25 °C14.4 °C52 %1005.1 hPa16.1 kmSE (140°)14.8 km/hClear
Hourly data recorded from KRAP, located 0 kilometers away from Rapid City, South Dakota







STORIES FROM OUR PARTNERS